Location: Newark
(54.3386°S, 169.8415°W)
Time: 03:43:55
(UTC+00:00)

Transit 2A Rocket - Pass Details

Date: 01 November 2019
Orbit: 594 x 909 km, 66.7° (Epoch: 17 November)

Event Time Altitude Azimuth Distance (km) Brightness Sun altitude
Rises 02:38:06 0° 309° (NW) 3,294 9.3 32.3°
Reaches altitude 10° 02:40:27 10° 306° (NW) 2,415 9.0 32.0°
Maximum altitude 02:46:04 68° 223° (SW) 939 6.1 31.2°
Drops below altitude 10° 02:52:07 10° 140° (SE) 2,598 7.4 30.4°
Sets 02:54:44 0° 136° (SE) 3,561 8.0 30.0°
